Voltar ao catálogo

STARLINK-32577

AtivoComunicaçõesVLEO
NORAD 62044·PAYLOAD·🇺🇸 United States

Lançado Nov 21, 2024 de Cape Canaveral Space Force Station

Loading…

Próximas Passagens (próximas 24 horas)

TLE

AtualizadoSource: CelesTrak SupGP

Época: Sep 14, 2026, 21:22 UTC

1 62044C 24216N   26257.89076389  .00014626  00000+0  52969-3 0  2572
2 62044  43.0013 274.9105 0001810 272.2902 298.1827 15.27574873    18

Acompanhe STARLINK-32577 em tempo real com AllMySat

Download on the App Store